Date,TemperatureHighF,TemperatureAvgF,TemperatureLowF,DewpointHighF,DewpointAvgF,DewpointLowF,HumidityHigh,HumidityAvg,HumidityLow,PressureMaxIn,PressureMinIn,WindSpeedMaxMPH,WindSpeedAvgMPH,GustSpeedMaxMPH,PrecipitationSumIn
2013-1-1,33.4,28.5,20.0,31.1,25.6,16.8,97,89,73,30.18,30.05,6,1,10,0.05
2013-1-2,25.3,15.8,6.6,17.9,12.3,4.3,93,86,70,30.31,30.16,5,0,6,0.01
2013-1-3,32.1,18.5,0.6,24.3,13.1,-2.1,93,80,51,30.36,30.26,14,3,19,0.00
2013-1-4,32.6,28.5,24.7,24.7,21.8,18.9,82,76,65,30.36,30.30,19,7,23,0.00
2013-1-5,38.7,28.9,11.7,29.3,23.4,9.8,94,81,64,30.40,30.19,9,3,13,0.02
2013-1-6,37.7,32.5,26.0,32.9,27.9,22.0,91,83,79,30.37,30.03,19,5,19,0.00
2013-1-7,36.9,28.6,18.5,28.2,24.2,16.7,94,84,69,30.51,30.29,8,2,13,0.00
2013-1-8,47.1,29.3,16.1,34.0,24.6,14.4,96,84,60,30.36,30.25,10,1,12,0.00
2013-1-9,49.4,40.1,25.5,41.6,34.8,23.5,95,82,63,30.53,30.24,13,4,17,0.04
2013-1-10,42.6,33.6,23.7,37.2,30.4,22.7,97,88,80,30.55,30.16,10,2,13,0.02
2013-1-11,60.1,51.8,42.4,55.3,48.3,37.3,98,88,75,30.15,29.90,19,4,24,0.45
2013-1-12,63.8,58.6,51.9,62.0,56.5,48.2,99,93,83,30.02,29.80,15,4,16,0.00
2013-1-13,65.4,54.8,35.9,61.7,53.1,34.6,98,94,81,30.10,29.71,21,5,33,0.49
2013-1-14,35.8,26.8,23.7,34.2,23.5,20.9,94,87,81,30.48,30.10,8,2,11,0.00
2013-1-15,30.7,27.2,21.3,26.3,23.4,19.4,94,85,79,30.42,30.13,9,4,13,0.00
2013-1-16,35.3,31.9,30.0,29.5,27.4,26.1,90,83,72,30.12,29.99,11,3,14,0.00
2013-1-17,41.2,32.2,25.3,31.9,26.6,19.1,91,80,64,30.40,30.11,6,1,9,0.01
2013-1-18,37.1,27.8,15.9,26.2,19.6,14.2,94,72,52,30.56,30.25,16,4,23,0.00
2013-1-19,52.4,44.4,37.1,30.8,27.4,24.3,65,52,38,30.25,29.90,26,11,33,0.00
2013-1-20,45.2,32.2,23.7,36.2,18.4,12.0,74,57,45,30.23,29.89,19,5,28,0.00
2013-1-21,23.6,18.9,9.2,16.1,10.3,-0.5,80,69,60,30.28,30.11,17,4,28,0.00
2013-1-22,16.5,10.9,5.2,3.1,0.1,-2.1,75,62,48,30.43,30.27,14,4,17,0.00
2013-1-23,19.9,15.4,8.7,15.4,7.5,2.1,87,71,49,30.40,30.14,14,3,18,0.00
2013-1-24,21.6,16.7,10.7,16.0,9.3,4.7,89,73,55,30.63,30.16,8,2,11,0.00
2013-1-25,24.8,20.7,17.5,21.2,15.3,9.3,90,79,64,30.51,30.08,12,3,14,0.00
2013-1-26,29.6,24.6,13.2,22.0,19.0,10.3,91,79,66,30.48,30.16,12,2,13,0.05
2013-1-27,34.6,25.4,11.9,31.4,20.6,9.5,94,82,69,30.50,30.23,9,2,13,0.02
2013-1-28,50.7,45.5,32.9,50.4,44.3,31.4,99,95,86,30.23,30.03,21,6,21,0.30
2013-1-29,64.4,57.1,49.0,58.6,53.9,48.5,99,89,77,30.06,29.58,24,6,28,0.00
2013-1-30,66.0,53.4,32.3,59.3,49.0,26.4,98,85,76,29.58,29.24,26,9,31,0.67
2013-1-31,32.3,25.8,15.5,27.2,19.5,12.3,93,77,59,30.03,29.50,32,10,32,0.00
2013-2-1,15.4,9.4,3.6,12.2,3.0,-1.3,89,75,66,30.43,30.03,16,5,24,0.00
2013-2-2,28.2,20.9,3.7,24.9,17.6,0.9,91,87,79,30.39,30.04,14,4,18,0.00
2013-2-3,26.2,20.7,14.3,23.1,15.7,10.9,90,81,69,30.15,29.95,15,5,18,0.00
2013-2-4,32.6,24.1,10.3,31.3,21.1,7.7,95,88,72,30.16,29.87,12,2,14,0.00
2013-2-5,35.0,30.8,26.0,31.1,27.2,23.5,96,87,76,30.02,29.87,10,2,16,0.02
2013-2-6,35.8,31.0,24.2,30.4,25.9,21.6,92,81,68,30.31,30.02,6,1,9,0.00
2013-2-7,51.6,38.9,27.1,40.0,32.3,23.7,88,78,62,30.25,29.82,9,2,10,0.00
2013-2-8,48.7,35.8,27.3,43.2,31.2,21.9,94,84,65,30.34,29.80,11,4,14,0.14
2013-2-9,37.1,27.6,17.5,24.9,21.3,15.8,95,78,55,30.47,30.28,5,1,10,0.01
2013-2-10,52.3,40.9,26.8,43.6,30.7,22.3,89,68,44,30.28,29.81,20,3,21,0.02
2013-2-11,50.9,45.4,36.4,48.7,39.6,28.7,95,81,61,30.03,29.75,20,8,28,0.00
2013-2-12,46.9,35.6,28.5,31.0,27.2,24.9,89,73,45,30.14,29.94,16,3,18,0.00
2013-2-13,34.8,30.0,27.5,29.6,27.3,25.3,94,90,78,29.94,29.79,7,1,8,0.03
2013-2-14,50.2,37.3,28.7,39.9,32.8,26.7,96,85,62,30.00,29.83,21,6,25,0.00
2013-2-15,38.3,30.4,17.9,34.0,27.5,16.2,95,89,68,30.17,29.99,13,2,16,0.01
2013-2-16,27.1,18.4,6.8,22.3,13.6,4.5,95,82,65,30.17,30.07,16,2,20,0.01
2013-2-17,27.9,19.5,11.8,15.7,11.8,7.4,87,73,50,30.28,30.15,11,1,17,0.00
2013-2-18,55.9,38.3,18.9,39.8,25.7,11.9,83,62,45,30.27,29.77,17,4,32,0.07
2013-2-19,44.5,31.3,23.0,40.9,26.7,15.5,94,83,72,30.11,29.65,22,9,28,0.15
2013-2-20,23.7,20.8,16.4,17.5,13.9,10.5,83,75,66,30.35,30.11,15,3,23,0.00
2013-2-21,27.4,23.7,20.8,23.5,18.2,14.4,87,79,76,30.40,30.13,13,3,15,0.00
2013-2-22,40.4,33.1,27.0,38.1,31.2,23.2,98,93,85,30.14,29.94,18,4,21,0.16
2013-2-23,40.7,33.7,29.3,32.3,28.3,25.2,98,81,60,30.01,29.92,12,2,15,0.01
2013-2-24,38.0,29.6,22.7,27.4,23.4,20.7,93,78,59,30.19,29.96,11,1,17,0.00
2013-2-25,43.4,31.5,18.0,30.1,24.5,16.6,96,77,57,30.23,29.96,11,3,16,0.00
2013-2-26,44.3,38.9,33.3,43.2,35.2,26.0,96,87,70,29.96,29.40,16,7,21,0.46
2013-2-27,42.4,36.5,31.7,40.6,34.4,30.4,96,92,85,29.72,29.51,22,9,26,0.08
2013-2-28,35.8,33.2,30.7,33.2,31.5,29.4,96,94,88,29.95,29.68,14,4,17,0.07
2013-3-1,35.2,32.1,28.5,32.5,29.4,23.8,97,90,81,30.06,29.94,7,2,11,0.00
2013-3-2,28.5,26.8,25.5,24.2,21.4,20.0,86,80,73,30.10,30.04,9,2,11,0.00
2013-3-3,31.7,27.5,24.3,21.9,19.4,16.3,86,72,57,30.11,30.06,7,1,11,0.00
2013-3-4,41.0,29.2,14.8,30.0,20.5,12.1,94,72,45,30.21,30.05,7,1,11,0.03
2013-3-5,36.5,33.6,31.7,33.4,30.9,29.2,97,90,78,30.09,29.59,15,4,17,0.28
2013-3-6,32.9,30.6,28.6,31.3,29.1,27.9,97,94,90,30.26,29.61,4,0,6,0.23
2013-3-7,37.3,32.4,27.9,32.5,29.1,25.0,96,88,74,30.40,30.25,7,1,8,0.29
2013-3-8,39.3,30.1,19.7,27.9,24.0,18.0,96,79,58,30.51,30.40,8,1,10,0.00
2013-3-9,53.6,39.5,24.0,39.6,32.1,22.5,96,76,52,30.42,30.06,10,2,13,0.00
2013-3-10,66.5,56.9,43.3,41.3,37.4,34.0,73,49,33,30.06,29.83,13,3,18,0.04
2013-3-11,58.5,48.7,38.2,51.4,44.2,33.8,94,85,53,29.86,29.56,22,6,26,1.21
2013-3-12,40.9,36.0,31.1,33.7,30.8,28.7,93,82,68,30.05,29.83,17,6,26,0.01
2013-3-13,33.6,29.4,25.3,31.3,24.2,19.2,94,81,64,30.32,30.00,16,5,21,0.00
2013-3-14,41.7,30.2,19.8,25.9,21.0,17.0,93,71,41,30.38,30.17,14,3,17,0.00
2013-3-15,49.9,39.3,28.3,40.8,33.0,22.7,93,79,61,30.19,29.82,11,3,15,0.01
2013-3-16,56.5,43.1,33.7,50.4,39.8,30.8,98,88,76,30.04,29.61,9,2,13,0.15
2013-3-17,36.5,34.1,32.1,30.9,29.0,26.2,90,82,74,30.17,30.04,13,4,14,0.00
2013-3-18,49.3,39.7,32.0,48.1,38.0,29.3,98,94,79,30.05,29.62,17,5,25,1.08
2013-3-19,41.2,35.5,27.7,35.6,24.3,17.7,88,65,40,30.10,29.81,26,9,35,0.00
2013-3-20,35.8,30.1,23.0,22.5,18.2,10.4,80,61,48,30.10,29.96,17,5,24,0.00
2013-3-21,30.0,24.5,18.7,19.2,15.1,10.6,80,67,55,30.06,29.96,13,2,15,0.00
2013-3-22,41.5,29.4,18.0,22.7,19.0,14.6,90,67,42,30.10,30.02,14,2,15,0.00
2013-3-23,48.7,35.7,23.9,28.3,24.5,20.2,92,68,34,30.10,29.94,9,1,11,0.00
2013-3-24,35.4,32.9,31.7,31.6,28.5,25.5,97,84,69,29.93,29.44,13,6,21,0.01
2013-3-25,33.6,31.6,29.0,31.6,30.4,28.5,98,95,91,29.94,29.44,6,1,9,0.30
2013-3-26,39.5,34.0,30.0,31.8,29.8,27.3,95,85,68,30.24,29.94,10,2,15,0.06
2013-3-27,41.9,35.2,30.0,33.1,27.5,24.1,88,74,55,30.32,30.23,9,3,16,0.00
2013-3-28,48.3,37.3,25.8,31.0,26.7,22.0,90,67,46,30.36,30.29,11,2,15,0.00
2013-3-29,54.1,38.8,23.2,34.2,29.5,22.0,96,72,42,30.34,30.22,12,1,13,0.00
2013-3-30,56.6,42.4,24.9,37.7,31.1,23.7,97,69,37,30.27,29.97,10,2,14,0.00
2013-3-31,56.2,46.7,39.1,47.3,41.9,36.0,98,84,61,29.97,29.76,18,4,20,0.02
2013-4-1,48.0,40.1,31.1,42.0,27.9,20.2,89,63,42,30.13,29.78,10,3,16,0.01
2013-4-2,44.6,33.2,20.1,23.1,19.5,16.5,90,59,36,30.29,30.13,16,2,17,0.00
2013-4-3,46.1,34.4,19.4,23.1,18.2,14.4,92,55,32,30.44,30.28,10,2,14,0.00
2013-4-4,53.8,39.6,29.9,28.4,20.8,17.3,83,50,24,30.38,30.00,9,2,11,0.00
2013-4-5,58.9,42.1,24.9,37.0,28.9,23.2,94,64,33,30.16,29.99,10,1,13,0.00
2013-4-6,63.4,48.4,32.6,37.5,29.6,24.0,83,50,31,30.24,29.91,19,3,19,0.00
2013-4-7,72.7,63.2,56.4,53.3,44.5,36.6,82,51,38,29.96,29.83,20,8,26,0.00
2013-4-8,71.7,61.1,47.7,56.4,52.7,46.9,98,76,57,29.98,29.85,19,5,24,0.05
2013-4-9,79.8,65.5,48.4,62.1,54.7,46.8,96,71,44,30.03,29.88,23,5,27,0.00
2013-4-10,82.3,71.3,62.2,66.6,60.8,57.1,84,70,51,29.94,29.76,23,7,26,0.00
2013-4-11,64.7,61.0,57.5,62.9,58.6,55.0,98,92,83,29.82,29.53,11,2,16,1.07
2013-4-12,57.5,46.5,40.0,56.9,41.3,33.7,99,83,66,29.91,29.48,24,6,26,0.13
2013-4-13,55.9,45.0,37.2,40.0,36.4,33.6,90,73,52,30.05,29.91,18,6,24,0.00
2013-4-14,68.9,52.0,34.6,47.8,40.3,32.8,94,68,38,30.09,29.90,9,2,11,0.00
2013-4-15,67.6,59.7,44.7,55.4,50.3,42.3,94,72,55,29.99,29.89,12,3,16,0.00
2013-4-16,77.5,63.3,55.3,65.4,58.2,53.3,98,84,62,30.16,29.93,17,5,20,0.51
2013-4-17,76.2,62.1,52.1,66.6,59.1,51.7,99,91,68,30.20,29.96,9,3,12,0.38
2013-4-18,81.3,71.9,61.7,65.9,59.4,53.4,95,67,44,29.97,29.59,25,6,29,0.00
2013-4-19,73.1,49.5,38.9,60.2,41.5,31.2,95,75,52,29.96,29.39,22,9,33,0.76
2013-4-20,47.9,40.1,32.8,33.6,30.5,26.8,90,70,46,30.42,29.95,16,4,20,0.01
2013-4-21,53.1,41.7,30.7,33.7,28.8,24.3,87,62,36,30.56,30.40,12,3,16,0.00
2013-4-22,67.5,52.0,35.0,45.8,36.7,28.3,92,58,35,30.40,30.14,8,1,11,0.00
2013-4-23,69.3,57.3,40.1,53.2,46.6,38.4,96,70,49,30.16,29.85,15,3,19,0.00
2013-4-24,65.0,50.2,35.0,55.8,44.6,33.4,97,82,62,30.21,29.75,24,4,24,0.68
2013-4-25,57.2,43.3,30.9,40.4,34.5,28.8,98,74,44,30.40,30.21,19,4,25,0.01
2013-4-26,58.4,44.7,28.5,42.2,33.8,27.5,98,70,38,30.49,30.36,7,1,9,0.00
2013-4-27,68.2,53.0,36.5,51.6,42.5,35.6,97,72,36,30.37,30.07,9,2,16,0.00
2013-4-28,66.5,58.3,54.0,60.6,55.5,50.0,97,91,78,30.07,29.80,9,2,16,0.15
2013-4-29,62.9,57.6,50.0,56.9,54.7,48.9,99,90,76,29.97,29.87,8,2,11,0.02
2013-4-30,75.1,60.5,43.3,59.5,53.2,43.0,100,80,49,30.06,29.96,11,1,13,0.01
2013-5-1,81.4,65.4,48.5,63.6,56.1,48.0,99,76,45,30.17,30.05,10,2,14,0.00
2013-5-2,72.7,62.6,52.0,58.6,55.1,51.2,98,78,54,30.21,30.08,9,2,14,0.00
2013-5-3,75.4,65.7,55.4,58.2,52.4,40.5,97,65,35,30.09,29.96,11,3,17,0.00
2013-5-4,69.6,62.3,56.4,51.1,46.4,40.4,73,57,44,30.01,29.93,13,4,17,0.00
2013-5-5,64.2,58.6,53.0,50.4,45.0,37.9,87,62,38,29.98,29.91,11,3,15,0.01
2013-5-6,59.3,55.8,52.2,57.3,53.9,50.2,97,93,87,29.97,29.90,9,3,15,0.46
2013-5-7,71.2,61.4,54.5,60.7,56.9,53.7,98,86,62,29.97,29.90,11,2,15,0.00
2013-5-8,74.5,61.9,51.0,62.0,56.4,50.5,99,84,52,29.98,29.91,8,1,13,0.23
2013-5-9,78.2,64.5,49.5,63.1,56.7,49.2,100,79,45,30.00,29.92,10,1,14,0.01
2013-5-10,69.6,62.6,58.4,64.0,60.7,56.9,99,94,80,29.97,29.77,17,3,23,1.08
2013-5-11,61.2,52.3,44.4,60.9,49.6,39.8,99,91,80,29.99,29.81,10,2,16,0.01
2013-5-12,53.5,45.2,35.9,40.3,35.4,31.2,98,71,46,30.12,29.99,14,2,21,0.00
2013-5-13,59.2,48.0,36.9,39.6,35.4,28.3,95,66,32,30.18,30.11,13,1,19,0.00
2013-5-14,78.9,60.6,38.9,59.2,47.0,36.9,95,64,45,30.15,29.81,17,5,23,0.00
2013-5-15,85.4,75.6,65.4,63.6,60.1,58.0,79,60,44,29.84,29.75,26,8,26,0.00
2013-5-16,75.9,68.5,61.8,68.2,62.7,57.8,98,83,58,29.96,29.79,13,2,17,0.28
2013-5-17,78.9,65.7,57.2,68.7,62.4,56.9,100,90,60,30.05,29.95,10,1,17,0.18
2013-5-18,78.9,68.7,61.2,68.0,64.3,60.9,100,87,62,30.05,29.93,8,1,9,0.00
2013-5-19,80.9,69.8,59.4,70.5,65.5,59.1,100,87,61,29.98,29.88,13,1,13,0.00
2013-5-20,83.8,74.2,65.1,72.4,68.8,63.9,99,84,65,29.97,29.85,13,2,18,0.00
2013-5-21,82.9,75.2,68.0,68.3,65.5,63.2,92,73,53,29.92,29.76,15,5,18,0.00
2013-5-22,79.2,69.3,63.2,66.3,63.4,60.8,98,83,61,29.81,29.69,22,4,22,0.60
2013-5-23,68.4,61.5,49.6,63.8,58.4,45.9,99,90,70,30.07,29.76,19,3,20,0.37
2013-5-24,63.1,52.4,44.2,46.6,42.0,37.2,95,70,41,30.31,30.07,7,1,14,0.00
2013-5-25,65.1,52.6,40.0,50.9,43.9,39.5,98,75,44,30.40,30.22,6,1,9,0.00
2013-5-26,69.0,58.4,45.6,52.8,45.4,41.3,94,65,40,30.31,30.17,9,1,9,0.00
2013-5-27,79.1,64.7,51.5,64.1,54.8,48.4,93,72,52,30.21,29.93,11,2,16,0.16
2013-5-28,81.6,74.5,67.0,68.0,63.0,59.0,81,68,54,29.99,29.90,21,5,29,0.00
2013-5-29,84.2,75.8,67.8,65.5,62.2,59.7,84,64,45,30.04,29.95,17,5,21,0.00
2013-5-30,86.0,76.0,65.8,70.9,66.3,63.4,94,73,56,30.11,29.97,14,2,18,0.00
2013-5-31,82.2,72.5,65.6,73.0,66.4,63.2,99,82,64,30.03,29.92,14,4,34,0.85
2013-6-1,79.8,73.2,65.8,70.5,67.9,65.3,99,84,69,29.94,29.74,22,6,27,0.05
2013-6-2,75.8,69.6,63.9,68.3,62.4,59.3,96,79,60,29.90,29.76,15,4,17,0.00
2013-6-3,65.6,60.0,50.8,59.3,53.8,49.8,97,80,66,30.05,29.90,7,0,7,0.00
2013-6-4,73.9,60.6,45.4,53.1,47.8,42.2,99,68,35,30.16,30.05,14,2,15,0.00
2013-6-5,80.6,68.2,55.3,65.7,55.6,48.8,88,65,46,30.09,29.83,8,1,12,0.01
2013-6-6,68.3,64.6,61.1,67.4,63.2,59.7,99,95,88,29.86,29.75,9,1,12,1.05
2013-6-7,72.4,62.5,55.9,62.3,57.7,54.6,98,85,61,29.89,29.78,9,2,11,0.00
2013-6-8,73.2,63.6,53.3,63.7,58.1,52.7,99,83,62,30.03,29.87,6,0,6,0.00
2013-6-9,79.4,70.8,59.7,67.3,63.5,58.3,97,79,55,30.05,29.88,9,1,11,0.00
2013-6-10,78.0,68.1,63.6,68.2,64.8,60.8,98,90,61,29.88,29.74,9,3,20,0.76
2013-6-11,82.5,71.9,62.9,70.3,65.7,62.3,98,82,56,29.92,29.81,13,3,14,0.01
2013-6-12,86.0,73.3,65.9,76.2,69.7,65.0,99,89,68,29.88,29.80,10,2,13,0.00
2013-6-13,76.0,69.4,63.9,67.9,62.5,56.7,99,81,54,29.87,29.55,8,1,11,1.42
2013-6-14,77.3,67.0,55.3,64.1,58.9,54.3,98,77,53,30.03,29.88,9,1,12,0.00
2013-6-15,79.1,68.1,54.5,66.7,61.1,53.9,99,80,57,30.10,29.92,8,1,11,0.00
2013-6-16,76.7,70.5,66.3,69.7,66.1,63.2,97,86,76,29.97,29.90,14,3,18,0.07
2013-6-17,83.3,73.0,66.6,72.3,68.5,64.8,100,87,55,29.94,29.83,9,1,11,0.00
2013-6-18,81.9,71.2,63.5,72.6,65.6,58.5,99,84,60,29.97,29.82,10,2,15,2.01
2013-6-19,77.0,66.3,55.1,60.7,56.0,50.4,97,72,42,30.10,29.97,9,2,11,0.00
2013-6-20,82.7,68.6,53.8,67.0,59.9,53.5,99,77,48,30.18,30.10,10,0,11,0.00
2013-6-21,84.3,72.4,56.9,71.9,63.7,56.3,99,77,50,30.19,30.08,7,1,11,0.00
2013-6-22,86.1,75.2,62.9,74.6,69.0,62.3,99,82,62,30.13,30.01,11,2,17,0.00
2013-6-23,86.3,75.6,64.5,74.2,67.8,61.9,99,79,56,30.10,29.99,12,2,28,0.00
2013-6-24,83.2,74.0,63.0,74.1,69.1,62.7,100,85,64,30.09,29.97,12,2,16,0.00
2013-6-25,88.4,77.9,67.6,76.9,71.4,66.8,99,82,61,30.03,29.83,15,4,17,0.00
2013-6-26,81.6,72.7,67.1,75.2,69.5,66.1,98,90,75,29.90,29.73,11,2,14,0.43
2013-6-27,68.9,68.2,67.7,68.4,67.7,67.1,99,98,98,29.76,29.73,3,1,6,0.00
2013-6-28,83.0,72.4,63.0,71.2,65.3,58.7,97,80,53,29.60,29.53,16,2,22,0.02
2013-6-29,76.7,67.5,60.8,68.7,63.7,60.2,99,88,69,29.63,29.54,11,2,11,0.02
2013-6-30,80.6,69.2,62.4,69.2,64.9,61.5,98,87,60,29.80,29.63,11,1,13,0.00
2013-7-1,77.5,68.6,63.9,70.4,65.4,61.1,96,90,75,29.90,29.78,10,2,13,0.03
2013-7-2,80.3,71.2,64.2,71.6,67.0,63.3,99,87,67,29.98,29.88,8,1,11,0.00
2013-7-3,80.3,72.6,66.3,71.4,68.4,65.7,99,88,67,30.08,29.98,9,1,19,0.22
2013-7-4,71.3,69.3,67.7,70.0,68.5,66.4,99,98,94,30.12,30.04,10,1,10,0.60
2013-7-5,75.8,70.2,65.6,70.9,68.4,65.3,100,94,81,30.12,30.04,8,1,12,0.28
2013-7-6,79.1,71.4,68.2,75.4,69.9,67.0,99,95,81,30.10,29.99,13,2,18,0.51
2013-7-7,79.7,70.7,64.8,71.7,67.5,64.2,99,90,70,30.08,29.98,11,1,11,0.00
2013-7-8,83.7,75.2,68.1,75.7,71.3,67.2,98,88,73,30.09,29.99,10,2,14,0.04
2013-7-9,87.7,77.7,72.2,78.6,73.3,69.9,97,87,70,30.04,29.93,13,3,19,0.16
2013-7-10,86.9,75.4,65.8,79.6,72.4,65.2,98,91,75,29.95,29.78,12,3,25,0.23
2013-7-11,79.3,69.7,60.6,70.1,64.6,58.0,100,85,61,29.99,29.89,11,2,14,0.01
2013-7-12,78.2,67.6,55.2,65.7,60.2,54.9,100,79,52,30.07,29.99,9,2,13,0.00
2013-7-13,81.7,72.5,62.5,69.8,65.6,60.1,94,80,63,30.12,30.03,13,2,15,0.00
2013-7-14,86.7,78.0,67.8,76.8,71.9,66.0,95,82,68,30.18,30.10,9,2,11,0.00
2013-7-15,89.1,79.1,68.6,76.3,72.5,68.0,99,82,56,30.26,30.18,9,1,9,0.00
2013-7-16,90.0,79.1,68.1,80.9,73.9,68.1,100,86,60,30.29,30.20,4,0,8,0.00
2013-7-17,90.7,78.2,69.7,78.4,74.0,69.7,100,88,62,30.27,30.14,6,0,9,0.00
2013-7-18,90.3,82.9,69.1,79.2,74.3,69.1,100,77,53,30.14,29.97,8,1,10,0.00
2013-7-19,87.8,77.2,70.0,78.9,73.8,68.6,100,90,71,30.00,29.84,13,2,28,0.03
2013-7-20,84.8,74.6,70.0,77.5,72.1,68.0,99,92,68,29.88,29.80,12,3,19,0.86
2013-7-21,82.1,73.3,67.0,75.3,71.1,67.0,100,93,75,29.94,29.84,3,0,5,0.01
2013-7-22,74.1,71.8,67.4,72.8,70.7,67.1,99,96,90,29.88,29.73,7,1,11,0.20
2013-7-23,83.8,73.0,66.2,76.6,70.1,64.6,100,91,69,29.80,29.68,14,3,25,0.30
2013-7-24,74.3,66.4,58.7,65.1,60.3,56.1,93,81,63,29.97,29.78,10,2,14,0.00
2013-7-25,76.3,64.3,52.8,63.4,56.9,52.3,98,79,53,30.06,29.98,11,1,13,0.00
2013-7-26,76.9,65.7,52.1,66.8,59.7,52.1,100,83,56,30.07,29.94,9,1,11,0.00
2013-7-27,74.8,66.2,60.5,67.9,63.0,58.0,99,90,61,29.94,29.79,13,2,17,0.16
2013-7-28,70.1,61.2,52.8,58.2,54.5,51.3,100,80,57,30.03,29.87,16,2,19,0.00
2013-7-29,75.3,63.0,51.7,61.9,56.9,51.2,99,82,56,30.17,30.03,12,1,14,0.00
2013-7-30,76.2,65.5,53.4,68.4,60.8,53.3,100,86,58,30.21,30.09,5,0,9,0.00
2013-7-31,72.8,68.0,64.7,68.9,65.9,63.3,98,93,85,30.10,29.91,9,1,10,0.00
2013-8-1,79.0,70.5,61.1,69.2,65.5,60.2,99,86,58,29.95,29.87,11,1,14,0.00
2013-8-2,80.6,68.4,54.3,66.6,62.0,54.0,100,82,58,29.98,29.90,11,2,16,0.00
2013-8-3,79.9,70.1,61.7,71.1,66.6,61.3,99,90,62,29.99,29.92,7,1,11,0.01
2013-8-4,76.4,66.6,56.8,63.3,59.3,56.2,99,79,53,30.10,29.99,10,1,13,0.00
2013-8-5,76.9,64.6,52.7,64.6,58.9,52.4,100,84,52,30.11,29.95,6,0,8,0.02
2013-8-6,79.4,69.5,59.0,70.6,64.2,57.4,98,84,67,29.97,29.89,10,1,13,0.00
2013-8-7,81.8,73.6,65.3,75.6,71.0,64.7,100,92,78,29.91,29.83,10,1,13,0.00
2013-8-8,83.4,73.2,68.0,77.4,72.1,68.0,100,97,79,29.92,29.84,11,1,13,0.31
2013-8-9,79.0,71.8,68.0,73.8,70.2,67.7,100,95,75,29.99,29.86,6,1,9,0.21
2013-8-10,81.1,72.2,63.9,73.7,68.6,63.9,100,89,66,30.08,29.99,8,0,10,0.00
2013-8-11,84.1,72.5,61.8,73.1,68.2,61.8,100,88,64,30.06,29.98,7,0,11,0.00
2013-8-12,82.6,71.2,60.4,72.2,66.9,60.4,100,88,63,30.04,29.84,11,1,17,0.12
2013-8-13,76.2,68.7,54.4,68.7,62.7,51.2,100,83,62,30.02,29.80,6,0,11,0.01
2013-8-14,68.2,57.6,48.1,55.1,51.2,47.6,98,81,53,30.16,30.02,9,1,11,0.00
2013-8-15,72.4,58.9,45.2,59.5,53.0,44.9,100,83,54,30.17,30.07,7,1,11,0.00
2013-8-16,75.8,63.6,52.5,59.8,56.1,52.0,99,79,50,30.14,30.09,10,1,13,0.00
2013-8-17,79.7,66.2,53.3,66.4,59.7,52.8,99,82,55,30.17,30.09,11,2,13,0.00
2013-8-18,79.3,67.0,56.0,67.8,61.9,55.7,100,86,57,30.16,30.06,5,1,9,0.00
2013-8-19,81.7,67.9,57.8,70.3,62.1,57.5,100,84,52,30.12,30.03,5,0,9,0.00
2013-8-20,83.0,69.3,56.1,70.3,63.4,55.9,100,84,54,30.15,30.06,6,0,9,0.00
2013-8-21,81.2,71.5,62.6,73.3,68.1,62.0,99,90,75,30.13,30.02,8,1,9,0.01
2013-8-22,84.3,71.4,64.5,73.6,68.6,64.1,100,92,64,30.08,29.98,9,1,14,0.09
2013-8-23,84.1,72.4,63.8,71.6,67.1,61.1,100,85,57,30.12,30.00,9,1,10,0.00
2013-8-24,82.4,68.4,54.7,69.6,62.1,54.1,99,82,53,30.24,30.12,6,1,9,0.00
2013-8-25,84.1,69.3,55.3,67.3,61.4,55.0,100,80,43,30.31,30.18,7,1,10,0.00
2013-8-26,87.2,71.9,56.9,73.7,66.4,56.6,100,85,55,30.23,30.03,12,1,16,0.00
2013-8-27,86.4,75.9,66.0,77.4,72.2,65.4,99,89,70,30.03,29.91,10,2,12,0.00
2013-8-28,89.8,79.5,71.9,77.4,73.8,70.8,97,84,66,29.92,29.81,11,2,16,0.00
2013-8-29,82.5,71.8,63.6,73.1,69.0,63.6,100,92,70,30.01,29.92,7,1,10,0.00
2013-8-30,85.9,73.0,61.3,74.2,68.2,61.3,100,87,59,29.97,29.79,9,1,12,0.00
2013-8-31,83.8,74.2,67.6,77.3,71.6,67.0,100,92,74,29.81,29.73,13,1,17,0.13
2013-9-1,84.0,73.1,65.6,73.3,69.4,65.3,100,89,67,29.80,29.71,8,2,14,0.00
2013-9-2,83.1,73.1,65.8,74.0,68.4,59.8,100,86,62,29.85,29.73,8,1,14,0.00
2013-9-3,73.3,62.9,54.1,60.0,56.5,53.5,98,81,57,30.04,29.85,7,1,14,0.00
2013-9-4,80.9,63.3,47.7,63.2,56.8,47.4,100,82,50,30.13,30.04,9,1,12,0.01
2013-9-5,84.6,67.1,52.3,66.4,58.5,49.4,100,77,51,30.18,30.09,9,1,10,0.00
2013-9-6,78.4,61.7,47.6,60.2,50.2,43.5,98,71,30,30.23,30.09,8,1,11,0.00
2013-9-7,84.1,66.0,48.5,68.2,59.3,48.0,99,82,53,30.09,29.92,11,2,15,0.00
2013-9-8,87.0,73.7,62.6,70.7,67.0,62.2,99,81,53,29.97,29.89,9,1,12,0.00
2013-9-9,88.2,75.4,62.0,73.5,68.6,61.7,99,81,56,30.00,29.91,14,2,17,0.00
2013-9-10,91.1,79.9,72.7,77.9,73.4,70.1,97,82,62,30.08,29.98,13,3,16,0.00
2013-9-11,88.9,78.0,67.5,77.4,72.1,66.7,99,83,61,30.11,29.96,10,2,14,0.00
2013-9-12,77.6,71.1,62.1,71.5,68.8,61.5,99,93,69,29.97,29.80,8,1,13,0.80
2013-9-13,62.7,56.8,48.5,61.4,50.6,45.3,98,81,56,30.08,29.87,5,0,10,0.00
2013-9-14,68.8,53.0,39.0,52.4,45.4,37.7,98,78,43,30.18,30.08,7,1,12,0.00
2013-9-15,74.7,57.7,41.0,61.2,51.3,40.7,100,82,51,30.15,30.00,9,1,15,0.01
2013-9-16,70.4,60.8,53.6,59.4,56.2,51.8,99,86,59,30.27,30.07,9,2,14,0.02
2013-9-17,73.9,59.9,47.6,57.2,52.6,46.8,98,79,49,30.32,30.15,8,2,12,0.00
2013-9-18,78.7,65.2,55.7,65.0,59.2,53.5,98,83,49,30.16,30.01,7,1,11,0.00
2013-9-19,78.1,67.9,62.2,71.1,66.3,61.9,100,95,74,30.06,29.93,9,1,15,0.12
2013-9-20,84.0,72.6,65.6,71.8,68.3,65.0,100,88,62,29.98,29.74,16,4,23,1.70
2013-9-21,71.8,63.8,53.5,67.4,59.2,50.1,100,87,54,29.85,29.64,3,0,14,0.82
2013-9-22,65.1,54.7,46.1,51.5,48.3,45.6,98,81,52,30.01,29.85,10,1,13,0.00
2013-9-23,67.2,54.2,41.3,51.7,47.0,40.8,99,79,50,30.12,29.98,11,2,13,0.00
2013-9-24,71.6,55.9,42.1,56.0,48.7,41.3,98,79,52,30.10,29.86,8,1,11,0.00
2013-9-25,71.3,57.0,48.1,58.8,52.2,47.3,98,85,59,29.93,29.81,7,1,9,0.00
2013-9-26,78.5,59.2,43.7,62.1,52.7,43.4,100,83,43,30.06,29.92,9,1,11,0.00
2013-9-27,78.2,60.0,44.3,58.9,51.2,44.0,100,77,37,30.16,30.01,5,0,9,0.00
2013-9-28,77.6,61.3,45.9,63.0,53.8,45.6,100,80,42,30.18,30.02,8,1,12,0.00
2013-9-29,68.8,60.5,51.1,62.4,58.0,50.8,100,92,76,30.05,29.98,11,2,15,0.02
2013-9-30,69.0,63.0,58.4,63.9,61.1,58.1,99,93,82,30.01,29.92,9,2,13,0.01
2013-10-1,75.8,62.7,51.5,66.1,59.2,51.2,100,89,65,30.07,29.98,14,2,19,0.00
2013-10-2,78.5,66.2,54.1,70.4,63.6,53.8,100,92,72,30.09,30.00,12,1,12,0.00
2013-10-3,74.4,67.7,63.0,70.8,66.8,62.7,100,97,86,30.07,29.97,9,1,14,0.46
2013-10-4,80.1,69.2,61.4,72.7,66.9,61.4,100,93,72,30.06,29.95,10,1,14,0.00
2013-10-5,79.4,70.0,62.0,72.0,68.0,61.7,100,94,77,30.03,29.91,13,3,18,0.00
2013-10-6,72.9,64.1,52.7,69.8,63.2,51.7,99,97,87,29.92,29.66,17,3,20,1.14
2013-10-7,60.0,51.1,44.4,53.0,46.9,43.5,99,86,61,30.16,29.78,17,3,21,0.01
2013-10-8,66.9,51.4,38.7,52.6,45.1,38.6,100,82,47,30.29,30.14,9,1,13,0.00
2013-10-9,71.2,54.6,41.9,53.8,47.3,41.6,99,80,41,30.25,30.15,8,1,10,0.00
2013-10-10,72.7,54.6,38.8,53.1,46.5,38.5,100,79,39,30.18,30.06,6,0,8,0.00
2013-10-11,77.1,58.3,43.5,56.7,50.4,43.2,100,80,41,30.10,30.00,5,0,8,0.00
2013-10-12,74.7,60.8,48.2,63.9,56.6,47.9,100,87,66,30.11,30.02,5,0,8,0.00
2013-10-13,72.3,59.3,49.7,62.4,54.5,46.8,100,86,54,30.28,30.10,6,0,9,0.01
2013-10-14,71.0,55.1,42.3,54.3,47.1,41.0,96,78,41,30.32,30.17,10,1,15,0.00
2013-10-15,71.9,59.8,47.0,65.3,57.3,46.2,100,92,76,30.19,29.93,12,2,15,0.00
2013-10-16,66.2,60.9,46.0,62.9,57.6,45.2,99,89,65,29.94,29.85,11,3,17,0.10
2013-10-17,53.2,46.5,38.9,49.8,44.7,38.6,100,94,83,29.98,29.85,11,1,15,0.06
2013-10-18,63.1,50.6,39.2,50.8,44.9,38.9,100,83,54,30.04,29.93,15,3,22,0.01
2013-10-19,50.1,45.1,40.3,46.4,42.8,38.4,97,92,77,29.99,29.82,11,1,16,0.11
2013-10-20,60.2,48.0,37.6,45.8,41.0,36.3,95,78,56,30.04,29.98,16,5,21,0.01
2013-10-21,64.1,53.1,40.7,49.0,43.2,38.0,93,71,48,30.00,29.87,14,4,22,0.00
2013-10-22,50.5,42.2,30.9,44.1,33.1,27.0,94,71,42,30.04,29.86,6,1,12,0.01
2013-10-23,45.2,39.7,34.4,38.8,36.0,32.8,98,87,71,30.03,29.76,9,1,20,0.09
2013-10-24,42.1,38.1,34.6,36.0,34.0,32.6,96,85,72,30.26,30.03,12,3,19,0.02
2013-10-25,47.9,36.5,27.4,35.7,29.7,25.8,95,78,49,30.44,30.26,14,2,17,0.00
2013-10-26,48.5,40.3,32.0,39.7,32.2,27.2,91,73,58,30.29,29.93,23,6,28,0.00
2013-10-27,54.6,40.2,28.3,41.5,34.1,27.6,99,82,49,30.12,30.05,13,1,15,0.00
2013-10-28,61.4,42.3,27.7,44.7,34.9,27.2,99,79,41,30.31,30.10,5,0,10,0.00
2013-10-29,56.9,45.0,31.6,46.3,40.2,30.8,99,85,62,30.37,30.22,4,0,6,0.00
2013-10-30,62.0,55.9,48.2,61.7,55.1,45.3,100,97,85,30.22,29.98,5,0,8,0.08
2013-10-31,64.1,62.4,59.2,63.1,59.5,57.1,99,90,81,29.99,29.31,24,6,42,1.20
2013-11-1,61.1,54.9,48.7,56.2,48.5,44.9,96,80,58,29.73,29.37,19,6,42,0.08
2013-11-2,53.3,48.5,44.0,45.1,41.4,37.4,92,77,57,30.07,29.71,17,3,19,0.00
2013-11-3,51.5,43.6,35.1,43.0,39.3,33.8,96,85,63,30.38,30.07,7,0,8,0.00
2013-11-4,56.0,46.3,36.1,43.3,38.3,32.6,91,74,57,30.42,30.31,12,2,15,0.00
2013-11-5,61.1,52.9,48.1,46.9,43.7,40.5,89,72,54,30.41,30.21,10,1,13,0.01
2013-11-6,65.2,56.3,44.8,58.6,49.4,39.6,97,78,58,30.21,29.94,15,5,26,0.36
2013-11-7,47.0,42.1,37.7,43.6,34.4,27.8,96,75,50,30.23,29.99,10,1,18,0.04
2013-11-8,47.7,38.3,30.0,35.9,32.0,28.5,95,79,54,30.37,30.19,11,2,14,0.00
2013-11-9,59.5,48.5,38.6,41.4,34.6,29.1,75,60,45,30.25,30.00,25,8,30,0.00
2013-11-10,50.6,41.9,28.2,41.5,33.1,27.0,95,72,55,30.34,30.07,10,2,19,0.00
2013-11-11,48.6,39.4,26.8,44.1,34.2,25.6,97,83,54,30.31,30.08,18,3,21,0.10
2013-11-12,33.3,28.3,23.7,31.7,23.9,20.6,96,84,66,30.62,30.26,13,1,14,0.03
2013-11-13,38.0,28.9,18.3,24.1,20.6,16.9,95,73,47,30.65,30.41,14,4,17,0.00
2013-11-14,52.4,39.8,29.7,26.4,22.8,19.0,73,53,27,30.41,30.16,19,6,22,0.00
2013-11-15,50.6,45.0,38.4,42.6,30.0,22.9,86,56,43,30.18,30.09,13,4,20,0.00
2013-11-16,59.8,52.3,42.0,55.3,49.1,39.6,94,89,84,30.14,29.90,18,4,18,0.00
2013-11-17,63.2,59.3,50.0,61.7,55.6,41.3,97,88,62,29.91,29.46,22,9,43,0.67
2013-11-18,50.7,44.8,36.4,41.4,36.1,30.3,87,72,54,30.18,29.74,27,6,29,0.04
2013-11-19,40.9,34.0,29.7,30.9,28.8,27.2,93,81,65,30.37,30.17,10,1,11,0.00
2013-11-20,49.1,37.3,28.8,34.9,30.5,24.9,91,77,55,30.36,30.25,9,2,13,0.00
2013-11-21,56.3,47.6,39.2,48.8,40.4,31.8,92,77,63,30.34,30.19,10,1,17,0.05
2013-11-22,52.1,47.1,36.2,51.8,45.0,30.9,99,92,81,30.36,30.15,13,4,13,0.13
2013-11-23,36.5,29.4,20.3,30.9,22.8,11.5,94,77,56,30.56,30.34,15,4,15,0.00
2013-11-24,26.5,19.4,12.7,14.1,12.1,9.4,92,74,53,30.70,30.56,6,1,15,0.00
2013-11-25,35.8,27.3,15.5,29.1,18.7,12.7,92,71,46,30.56,30.21,14,3,21,0.00
2013-11-26,34.2,31.8,30.5,32.6,30.4,28.2,97,94,90,30.23,29.93,7,0,11,0.03
2013-11-27,31.9,26.4,22.2,29.2,21.4,16.7,90,81,67,30.29,29.91,15,3,19,0.00
2013-11-28,32.0,24.6,19.0,20.7,17.7,14.6,92,76,57,30.47,30.29,12,3,22,0.00
2013-11-29,36.2,25.7,14.5,25.0,20.2,12.8,94,81,60,30.66,30.47,7,1,9,0.00
2013-11-30,47.3,35.4,24.4,31.7,26.7,21.3,88,72,49,30.55,30.19,11,2,15,0.00
2013-12-1,50.0,39.5,32.4,37.8,32.1,26.5,93,75,62,30.19,29.96,12,2,15,0.00
2013-12-2,47.8,38.3,29.9,40.5,35.3,28.6,97,89,74,29.96,29.81,6,1,9,0.02
2013-12-3,51.5,42.4,34.7,48.1,40.8,34.2,99,94,84,29.90,29.79,7,1,9,0.01
2013-12-4,60.8,53.6,41.8,56.9,50.9,40.7,98,91,85,29.88,29.72,13,2,13,0.00
2013-12-5,64.3,48.5,31.3,59.5,45.3,29.2,96,89,81,30.13,29.74,16,3,24,0.20
2013-12-6,31.5,28.1,25.3,29.3,26.7,24.1,96,94,90,30.41,30.11,6,1,10,0.01
2013-12-7,29.0,20.5,8.0,24.0,16.5,5.9,95,85,68,30.62,30.40,5,0,7,0.26
2013-12-8,32.0,23.7,12.9,31.5,21.3,11.0,98,90,82,30.57,30.04,11,3,17,0.00
2013-12-9,32.6,28.9,23.2,32.1,26.3,17.9,98,90,80,30.24,30.01,19,7,19,0.00
2013-12-10,27.4,21.7,16.8,18.6,15.7,11.1,93,78,61,30.38,30.16,18,5,28,0.00
2013-12-11,34.4,18.9,2.6,23.0,13.5,-0.1,92,80,61,30.54,30.30,16,3,21,0.02
2013-12-12,21.8,14.6,2.6,10.4,6.0,-0.1,90,70,42,30.58,30.37,15,4,18,0.00
2013-12-13,35.9,25.7,14.0,30.4,17.9,7.2,95,73,58,30.39,30.19,10,2,14,0.03
2013-12-14,36.4,33.3,29.7,36.1,32.5,29.2,99,97,95,30.20,29.72,11,3,16,0.46
2013-12-15,29.5,26.1,24.3,29.0,22.6,16.3,98,87,71,30.14,29.86,21,6,27,0.01
2013-12-16,29.5,25.2,22.8,28.5,23.3,20.9,96,92,84,30.16,30.01,12,2,15,0.00
2013-12-17,32.8,28.5,26.5,31.8,26.0,23.5,96,90,85,30.17,30.00,12,4,19,0.01
2013-12-18,36.6,27.1,19.9,23.4,20.0,17.4,94,76,54,30.28,30.07,14,5,18,0.01
2013-12-19,50.5,42.5,35.6,39.5,31.5,21.4,90,65,52,30.10,29.96,13,5,18,0.00
2013-12-20,58.6,52.8,47.6,56.8,46.7,37.2,96,81,61,29.96,29.80,18,6,24,0.01
2013-12-21,66.4,59.7,55.8,63.0,58.6,54.8,99,96,88,29.81,29.42,21,6,33,1.70
2013-12-22,62.0,52.7,38.2,61.0,49.6,36.6,98,89,77,30.01,29.51,24,8,32,0.48
2013-12-23,38.1,31.3,26.0,36.5,26.4,19.9,94,82,74,30.39,30.01,15,4,22,0.02
2013-12-24,25.9,17.5,12.1,21.2,12.7,7.4,91,81,71,30.58,30.36,12,2,18,0.00
2013-12-25,32.2,24.7,15.3,25.3,17.4,12.9,90,74,54,30.55,30.21,13,3,17,0.00
2013-12-26,37.5,31.8,25.1,27.4,23.9,20.5,90,73,54,30.36,30.19,21,6,24,0.00
2013-12-27,46.0,37.1,29.8,32.5,28.4,24.7,82,71,57,30.42,30.28,14,5,15,0.00
2013-12-28,51.7,41.6,35.0,35.7,31.7,29.1,80,68,53,30.28,30.02,14,5,18,0.00
2013-12-29,42.4,38.3,32.1,40.5,35.2,28.9,98,89,59,30.02,29.78,16,3,19,0.29
2013-12-30,32.0,26.5,22.2,28.6,22.3,17.0,88,84,79,30.24,30.01,11,2,14,0.00
2013-12-31,30.3,25.7,22.1,22.6,18.5,15.2,87,74,64,30.39,30.17,25,6,25,0.00
2014-1-1,42.2,30.7,19.7,30.6,25.7,18.2,95,82,61,30.32,30.04,9,1,14,0.00
2014-1-2,30.2,21.9,9.1,28.2,19.8,5.8,96,92,86,30.28,29.84,11,3,24,0.00